TimeMDT,TemperatureF,Dew PointF,Humidity,Sea Level PressureIn,VisibilityMPH,Wind Direction,Wind SpeedMPH,Gust SpeedMPH,PrecipitationIn,Events,Conditions,WindDirDegrees,DateUTC
12:15 AM,50.0,24.8,37,29.62,9.0,West,5.8,-,N/A,,Overcast,270,2013-04-09 06:15:00
12:35 AM,48.2,24.8,40,29.61,8.0,Calm,Calm,-,N/A,,Overcast,0,2013-04-09 06:35:00
12:55 AM,46.4,23.0,40,29.59,9.0,NNE,6.9,-,N/A,,Overcast,30,2013-04-09 06:55:00
1:15 AM,44.6,23.0,43,29.59,10.0,East,8.1,-,N/A,,Overcast,100,2013-04-09 07:15:00
1:35 AM,46.4,26.6,46,29.58,10.0,East,9.2,-,N/A,,Overcast,80,2013-04-09 07:35:00
1:55 AM,44.6,26.6,49,29.56,10.0,ENE,6.9,-,N/A,,Overcast,60,2013-04-09 07:55:00
2:15 AM,41.0,24.8,53,29.55,10.0,East,5.8,-,N/A,,Overcast,90,2013-04-09 08:15:00
2:35 AM,41.0,24.8,53,29.54,10.0,East,8.1,-,N/A,,Overcast,100,2013-04-09 08:35:00
2:55 AM,42.8,24.8,49,29.51,10.0,Calm,Calm,-,N/A,,Overcast,0,2013-04-09 08:55:00
3:15 AM,41.0,24.8,53,29.51,10.0,East,3.5,-,N/A,,Overcast,80,2013-04-09 09:15:00
3:35 AM,39.2,23.0,52,29.49,10.0,ENE,6.9,-,N/A,,Overcast,60,2013-04-09 09:35:00
3:55 AM,37.4,23.0,56,29.48,10.0,North,6.9,-,N/A,,Mostly Cloudy,360,2013-04-09 09:55:00
4:15 AM,37.4,26.6,65,29.49,10.0,North,3.5,-,N/A,,Mostly Cloudy,350,2013-04-09 10:15:00
4:35 AM,37.4,24.8,60,29.49,10.0,Calm,Calm,-,N/A,,Mostly Cloudy,0,2013-04-09 10:35:00
4:55 AM,44.6,21.2,39,29.49,10.0,South,15.0,23.0,N/A,,Mostly Cloudy,180,2013-04-09 10:55:00
5:15 AM,44.6,21.2,39,29.50,10.0,South,8.1,-,N/A,,Mostly Cloudy,190,2013-04-09 11:15:00
5:35 AM,44.6,21.2,39,29.50,10.0,SW,11.5,-,N/A,,Mostly Cloudy,220,2013-04-09 11:35:00
6:15 AM,44.6,23.0,43,29.50,10.0,SW,16.1,-,N/A,,Overcast,220,2013-04-09 12:15:00
6:35 AM,42.8,23.0,46,29.51,10.0,SW,13.8,-,N/A,,Mostly Cloudy,230,2013-04-09 12:35:00
6:55 AM,41.0,24.8,53,29.53,10.0,SW,11.5,-,N/A,,Mostly Cloudy,230,2013-04-09 12:55:00
7:15 AM,41.0,23.0,49,29.54,10.0,SSW,9.2,-,N/A,,Mostly Cloudy,210,2013-04-09 13:15:00
7:35 AM,42.8,24.8,49,29.56,10.0,WSW,20.7,31.1,N/A,,Overcast,240,2013-04-09 13:35:00
7:55 AM,37.4,28.4,70,29.58,10.0,WSW,18.4,-,N/A,,Overcast,240,2013-04-09 13:55:00
8:15 AM,37.4,30.2,75,29.59,10.0,WSW,17.3,-,N/A,,Overcast,240,2013-04-09 14:15:00
8:35 AM,37.4,30.2,75,29.58,10.0,WSW,12.7,-,N/A,,Mostly Cloudy,240,2013-04-09 14:35:00
8:55 AM,42.8,28.4,57,29.57,10.0,SW,16.1,24.2,N/A,,Mostly Cloudy,230,2013-04-09 14:55:00
9:15 AM,44.6,24.8,46,29.56,10.0,SW,18.4,25.3,N/A,,Mostly Cloudy,230,2013-04-09 15:15:00
9:35 AM,42.8,24.8,49,29.57,10.0,SSW,12.7,-,N/A,,Overcast,210,2013-04-09 15:35:00
9:55 AM,42.8,26.6,53,29.58,10.0,East,17.3,21.9,N/A,,Overcast,100,2013-04-09 15:55:00
10:15 AM,37.4,28.4,70,29.60,9.0,SE,16.1,-,N/A,,Overcast,140,2013-04-09 16:15:00
10:35 AM,35.6,28.4,75,29.62,5.0,SE,9.2,-,N/A,,Overcast,130,2013-04-09 16:35:00
10:55 AM,33.8,28.4,81,29.64,1.0,SSE,8.1,-,0.01,Thunderstorm,Thunderstorm,150,2013-04-09 16:55:00
11:15 AM,33.8,28.4,81,29.64,4.0,South,9.2,18.4,N/A,,Overcast,180,2013-04-09 17:15:00
11:35 AM,33.8,28.4,81,29.63,1.5,SW,18.4,-,N/A,,Overcast,220,2013-04-09 17:35:00
11:55 AM,33.8,28.4,81,29.64,0.8,SSW,17.3,-,N/A,,Overcast,210,2013-04-09 17:55:00
12:15 PM,33.8,28.4,81,29.64,10.0,South,10.4,-,0.02,,Overcast,170,2013-04-09 18:15:00
12:35 PM,33.8,26.6,75,29.66,2.5,SW,12.7,20.7,0.04,,Overcast,220,2013-04-09 18:35:00
12:55 PM,35.6,28.4,75,29.65,9.0,SSW,12.7,-,0.06,,Overcast,210,2013-04-09 18:55:00
1:15 PM,37.4,28.4,70,29.65,10.0,SSE,13.8,18.4,0.03,,Overcast,160,2013-04-09 19:15:00
1:35 PM,35.6,26.6,70,29.65,10.0,SSE,21.9,-,0.05,,Overcast,150,2013-04-09 19:35:00
1:55 PM,35.6,26.6,70,29.68,10.0,South,18.4,24.2,0.05,,Overcast,170,2013-04-09 19:55:00
2:15 PM,33.8,26.6,75,29.69,10.0,SSE,13.8,-,0.01,,Overcast,150,2013-04-09 20:15:00
2:35 PM,35.6,26.6,70,29.68,10.0,SE,17.3,20.7,0.03,,Mostly Cloudy,130,2013-04-09 20:35:00
2:55 PM,35.6,24.8,65,29.69,10.0,SSE,16.1,-,0.04,,Overcast,160,2013-04-09 20:55:00
3:15 PM,35.6,26.6,70,29.70,10.0,SE,19.6,-,0.01,,Overcast,140,2013-04-09 21:15:00
3:35 PM,35.6,26.6,70,29.69,10.0,ESE,19.6,23.0,0.02,,Overcast,120,2013-04-09 21:35:00
3:55 PM,35.6,26.6,70,29.68,10.0,SE,15.0,21.9,0.03,,Overcast,140,2013-04-09 21:55:00
4:15 PM,37.4,24.8,60,29.69,10.0,SSE,19.6,23.0,N/A,,Mostly Cloudy,150,2013-04-09 22:15:00
4:35 PM,37.4,24.8,60,29.70,10.0,SE,21.9,-,0.01,,Overcast,140,2013-04-09 22:35:00
4:55 PM,37.4,23.0,56,29.71,10.0,SE,15.0,25.3,0.01,,Mostly Cloudy,140,2013-04-09 22:55:00
5:15 PM,33.8,21.2,60,29.74,10.0,SE,21.9,28.8,N/A,,Overcast,140,2013-04-09 23:15:00
5:35 PM,33.8,24.8,70,29.75,10.0,SSE,19.6,26.5,N/A,,Overcast,150,2013-04-09 23:35:00
5:55 PM,32.0,24.8,75,29.77,10.0,SE,15.0,-,N/A,,Mostly Cloudy,140,2013-04-09 23:55:00
6:15 PM,32.0,26.6,80,29.77,10.0,SE,13.8,-,N/A,,Overcast,140,2013-04-10 00:15:00
6:35 PM,33.8,24.8,70,29.78,10.0,SE,8.1,-,N/A,,Overcast,140,2013-04-10 00:35:00
6:55 PM,33.8,24.8,70,29.78,10.0,ESE,6.9,-,N/A,,Overcast,120,2013-04-10 00:55:00
7:15 PM,33.8,23.0,65,29.79,10.0,ESE,5.8,-,N/A,,Mostly Cloudy,120,2013-04-10 01:15:00
7:35 PM,33.8,23.0,65,29.79,10.0,ESE,5.8,-,N/A,,Mostly Cloudy,120,2013-04-10 01:35:00
7:55 PM,33.8,23.0,65,29.80,10.0,East,6.9,-,N/A,,Mostly Cloudy,90,2013-04-10 01:55:00
8:15 PM,33.8,23.0,65,29.80,10.0,East,6.9,-,N/A,,Overcast,90,2013-04-10 02:15:00
8:55 PM,33.8,23.0,65,29.83,10.0,South,4.6,-,N/A,,Overcast,180,2013-04-10 02:55:00
9:15 PM,33.8,24.8,70,29.84,10.0,SW,6.9,-,N/A,,Mostly Cloudy,220,2013-04-10 03:15:00
9:35 PM,33.8,26.6,75,29.85,7.0,WSW,8.1,-,N/A,,Overcast,240,2013-04-10 03:35:00
9:55 PM,33.8,26.6,75,29.85,10.0,WSW,11.5,-,N/A,,Overcast,240,2013-04-10 03:55:00
10:15 PM,33.8,26.6,75,29.86,10.0,WSW,9.2,-,N/A,,Overcast,250,2013-04-10 04:15:00
10:35 PM,32.0,26.6,80,29.85,10.0,WSW,8.1,-,N/A,,Mostly Cloudy,250,2013-04-10 04:35:00
10:55 PM,32.0,28.4,87,29.86,10.0,SW,8.1,-,N/A,,Overcast,220,2013-04-10 04:55:00
11:15 PM,32.0,26.6,80,29.85,10.0,West,5.8,-,N/A,,Overcast,270,2013-04-10 05:15:00
11:35 PM,32.0,28.4,87,29.86,10.0,WSW,3.5,-,N/A,,Overcast,250,2013-04-10 05:35:00
11:55 PM,32.0,28.4,87,29.86,10.0,Calm,Calm,-,N/A,,Mostly Cloudy,0,2013-04-10 05:55:00